Location: Unspecified
(0.0000°N, 0.0000°E)
Time: 16:16:39
(UTC+02:00)

NOAA 12 - Visible Passes

Search period start: 05 September 2015 00:00
Search period end: 15 September 2015 00:00
Orbit: 795 x 816 km, 98.6° (Epoch: 04 September)

Date Brightness Start Highest point End Pass type
(mag) Time Alt. Az. Time Alt. Az. Time Alt. Az.
05 Sep 5.1 20:29:54 10° SE 20:34:04 25° E 20:38:21 10° NNE visible
05 Sep 6.4 22:09:54 10° SSW 22:13:46 20° WSW 22:17:24 10° WNW visible
06 Sep 5.3 21:43:58 10° S 21:48:51 39° WSW 21:53:40 10° NW visible
07 Sep 4.1 21:18:44 10° S 21:23:58 81° WSW 21:29:11 10° NNW visible
08 Sep 4.2 20:54:03 10° SSE 20:59:06 50° ENE 21:04:09 10° N visible
09 Sep 5.0 20:30:01 10° SE 20:34:12 25° E 20:38:29 10° NNE visible
09 Sep 6.4 22:10:03 10° SSW 22:13:54 20° W 22:17:31 10° WNW visible
10 Sep 5.3 21:44:06 10° S 21:48:59 39° WSW 21:53:47 10° NW visible
11 Sep 4.1 21:18:52 10° S 21:24:06 80° WSW 21:29:19 10° NNW visible
12 Sep 4.2 20:54:11 10° SSE 20:59:14 51° ENE 21:04:17 10° N visible
13 Sep 5.0 20:30:08 10° SE 20:34:19 25° ENE 20:38:38 10° NNE visible
13 Sep 6.5 22:10:12 10° SSW 22:14:02 20° W 22:17:38 10° WNW visible
14 Sep 5.3 21:44:14 10° S 21:49:06 39° WSW 21:53:55 10° NW visible
